This demonstration page uses our WeatherBlox Daily Observations layout. Learn more.

Left ArrowRight Arrow

38.83388, -104.82136

Hourly Observations for April 2, 2017

Temp ( °F °C ) Dew Point ( °F °C ) Humidity (%) Winds ( mph kmh ) Pressure ( in mb ) Visibility ( mi km ) Precip ( " mm )
12:08 am 00:08 Mostly Cloudy with Fog 30 -1 30 -1 100 100 SE 3 6 30.03 1017 1 2 0.00 0.00
12:58 am 00:58 Mostly Cloudy with Fog 31 -0.8 31 -0.7 100 100 SSE 6 9 29.75 1008 1 2 0.00 0.00
1:58 am 01:58 Mostly Cloudy with Fog 30 -0.9 31 -0.8 100 100 Calm 29.71 1006 1 2 0.00 0.00
2:58 am 02:58 Mostly Cloudy with Freezing Fog 30 -1.3 30 -1.3 100 100 NNW 5 7 29.69 1006 1 1 0.00 0.00
3:13 am 03:13 Mostly Cloudy 28 -2 28 -2 100 100 N 7 11 29.97 1015 8 13 0.00 0.00
3:53 am 03:53 Partly Cloudy 28 -2 28 -2 100 100 Calm 29.94 1014 7 11 0.00 0.00
3:58 am 03:58 Partly Cloudy 28 -2.1 28 -2.1 100 100 Calm 29.65 1004 8 13 0.00 0.00
4:13 am 04:13 Clear with Mist and Fog 28 -2 28 -2 100 100 Calm 29.91 1013 1 2 0.00 0.00
4:23 am 04:23 Mostly Cloudy with Freezing Fog 28 -2 28 -2 100 100 Calm 29.91 1013 1 2 0.00 0.00
4:48 am 04:48 Partly Cloudy with Patchy Fog 30 -1 32 0 100 100 WNW 7 11 29.88 1012 10 16 0.00 0.00
4:58 am 04:58 Mostly Clear 32 -0.2 32 -0.1 100 100 WNW 6 9 29.62 1003 10 16 0.00 0.00
5:58 am 05:58 Clear 34 1.3 34 1.1 99 99 W 5 7 29.61 1003 10 16 0.00 0.00
6:58 am 06:58 Sunny 41 4.8 28 -2.2 61 61 NW 14 22 29.58 1002 10 16 0.00 0.00
7:58 am 07:58 Sunny 41 5.1 28 -2.2 60 60 WNW 12 19 29.61 1003 10 16 0.00 0.00
8:58 am 08:58 Sunny 39 4 31 -0.4 73 73 NW 8 13 29.62 1003 10 16 0.00 0.00
9:13 am 09:13 Partly Cloudy with Fog 32 0 32 0 100 100 SE 6 9 29.94 1014 1 2 0.00 0.00
9:18 am 09:18 Mostly Cloudy with Fog 32 0 30 -1 93 93 S 6 9 29.94 1014 1 2 0.00 0.00
9:43 am 09:43 Partly Cloudy with Patchy Fog 36 2 34 1 93 93 S 3 6 29.88 1012 10 16 0.00 0.00
9:58 am 09:58 Mostly Sunny 38 3.3 33 0.7 83 83 Calm 29.65 1004 10 16 0.00 0.00
10:58 am 10:58 Sunny 41 4.8 35 1.7 81 81 E 3 6 29.64 1004 10 16 0.00 0.00
11:58 am 11:58 Sunny 45 7.1 33 0.3 62 62 Calm 29.60 1002 10 16 0.00 0.00
12:58 pm 12:58 Mostly Sunny 47 8.4 33 0.6 58 58 Calm 29.56 1001 10 16 0.00 0.00
1:58 pm 13:58 Mostly Cloudy 49 9.7 30 -1 48 48 S 8 13 29.51 999 10 16 0.00 0.00
2:58 pm 14:58 Partly Cloudy 48 9 31 -0.5 52 52 S 6 9 29.52 1000 10 16 0.00 0.00
3:58 pm 15:58 Partly Cloudy 50 10 32 0.1 51 51 SSE 12 19 29.48 998 10 16 0.00 0.00
4:58 pm 16:58 Partly Cloudy 48 9 31 -0.4 52 52 S 10 17 29.46 998 10 16 0.00 0.00
5:58 pm 17:58 Mostly Cloudy 47 8.6 32 -0.2 54 54 S 8 13 29.43 997 10 16 0.00 0.00
6:58 pm 18:58 Mostly Cloudy 47 8.4 30 -1 52 52 SW 15 24 29.40 996 10 16 0.00 0.00
7:58 pm 19:58 Mostly Cloudy 45 7 33 0.5 64 64 WNW 5 7 29.41 996 10 16 0.00 0.00
8:40 pm 20:40 Mostly Cloudy with Light Rain 46 8 32 0 57 57 NNW 10 17 29.62 1003 10 16 0.00 0.00
8:58 pm 20:58 Cloudy with Light Rain 45 7 34 1.1 66 66 WNW 16 26 29.44 997 10 16 0.00 0.00
9:38 pm 21:38 Cloudy with Showers 43 6 36 2 76 76 NNW 13 20 29.65 1004 6 10 0.00 0.00
9:48 pm 21:48 Cloudy with Light Showers 43 6 36 2 76 76 NNW 14 22 29.65 1004 10 16 0.00 0.00
9:58 pm 21:58 Cloudy with Light Showers 42 5.6 36 2 78 78 NNW 14 22 29.46 998 10 16 0.03 0.76
10:07 pm 22:07 Mostly Cloudy 41 5 36 2 81 81 NNW 15 24 29.68 1005 10 16 0.00 0.00
10:58 pm 22:58 Mostly Cloudy 42 5.5 34 0.9 73 73 NW 9 15 29.42 996 10 16 0.00 0.00
11:58 pm 23:58 Clear 42 5.3 33 0.5 71 71 WNW 10 17 29.41 996 10 16 0.00 0.00

Powered by AerisWeather